Language: 


Des rapports , des résumés tant et plus, au choix de chacun....


Données Historiques de Météogheer
Journalier Rapport pour Février 15, 2018 Unitée:  Impériale    Métrique   Les deux
Suivant Jour »
Journalier Hebdomadaire Mensuel Annuel Sur mesure
  Max: Min: Moyenne:
Température: 55.6 °F 36.9 °F 44.2 °F
Point de rosée: 53.6 °F 35.6 °F 41.5 °F
Humidité: 98% 63% 89%
Vent: 15.7mph 0mph 5.7mph
Rafales: 20.6mph - -
Vent- - SW
Pression: 30.1 in 29.6 in -
Pluie: 0.05 in    
Historical Graphs
 
 
Données tabulaires pour Février 15, 2018
Heure Température Point de rosée Pression Vent Vent Rafales Humidité Pluie Taux (Horaire) Conditions
00:01 39 °F 37.4 °F 29.7 in SSW 12.5 mph 14.8 mph 95% 0.05 in
00:06 38.8 °F 37.4 °F 29.7 in South 8.5 mph 12.5 mph 95% 0.03 in
00:11 38.8 °F 37.4 °F 29.7 in SSE 8.1 mph 19.5 mph 96% 0.03 in
00:16 38.8 °F 37.4 °F 29.7 in SSW 9.6 mph 19.5 mph 96% 0.03 in
00:21 38.8 °F 37.4 °F 29.7 in SSE 11 mph 14.5 mph 96% 0.03 in
00:26 38.8 °F 37.4 °F 29.7 in SSE 10.5 mph 14.5 mph 96% 0.02 in
00:31 38.8 °F 37.4 °F 29.7 in SSE 5.8 mph 13.9 mph 96% 0.02 in
00:36 38.8 °F 37.4 °F 29.7 in South 5.6 mph 13.9 mph 96% 0.02 in
00:41 38.8 °F 37.4 °F 29.7 in South 5.6 mph 14.3 mph 96% 0.01 in
00:46 38.7 °F 37.4 °F 29.7 in SSE 11 mph 14.3 mph 96% 0.01 in
00:51 38.7 °F 37.4 °F 29.7 in South 6.9 mph 15.2 mph 97% 0.01 in
00:56 38.7 °F 37.4 °F 29.7 in SSE 10.7 mph 17 mph 97% 0 in
01:01 38.7 °F 37.4 °F 29.7 in SSE 7.4 mph 17 mph 97% 0 in
01:06 38.7 °F 37.4 °F 29.7 in South 7.2 mph 10.7 mph 97% 0 in
01:11 38.7 °F 39.2 °F 29.7 in South 14.5 mph 14.5 mph 98% 0 in
01:16 38.8 °F 39.2 °F 29.7 in South 9.8 mph 14.5 mph 98% 0 in
01:21 38.8 °F 39.2 °F 29.7 in South 12.1 mph 14.5 mph 98% 0 in
01:26 38.8 °F 39.2 °F 29.7 in South 12.1 mph 12.5 mph 98% 0 in
01:31 38.8 °F 39.2 °F 29.7 in SSW 14.5 mph 14.5 mph 98% 0.01 in
01:36 38.8 °F 39.2 °F 29.7 in SSW 14.5 mph 14.5 mph 98% 0.01 in
01:41 38.8 °F 39.2 °F 29.7 in South 10.5 mph 14.5 mph 98% 0.01 in
01:46 38.8 °F 39.2 °F 29.6 in South 10.5 mph 14.5 mph 98% 0.01 in
01:51 38.8 °F 39.2 °F 29.6 in South 10.5 mph 10.5 mph 98% 0.01 in
01:56 38.8 °F 39.2 °F 29.6 in SSW 7.2 mph 10.5 mph 98% 0.01 in
02:01 38.8 °F 39.2 °F 29.7 in SSW 7.2 mph 10.5 mph 98% 0.01 in
02:06 38.8 °F 39.2 °F 29.7 in South 10.1 mph 10.1 mph 98% 0.01 in
02:11 38.8 °F 39.2 °F 29.7 in SSE 7.8 mph 17 mph 98% 0.01 in
02:16 38.8 °F 39.2 °F 29.7 in SSW 9.6 mph 17 mph 98% 0.01 in
02:21 38.8 °F 39.2 °F 29.7 in SSE 7.6 mph 11.2 mph 98% 0.01 in
02:26 38.8 °F 39.2 °F 29.7 in South 13 mph 13 mph 98% 0.01 in
02:32 38.8 °F 39.2 °F 29.7 in South 6.5 mph 13 mph 98% 0.01 in
02:37 39 °F 39.2 °F 29.7 in SSE 9.2 mph 13 mph 98% 0.01 in
02:42 39 °F 39.2 °F 29.7 in South 11 mph 11 mph 98% 0.01 in
02:47 39 °F 39.2 °F 29.7 in SSW 8.7 mph 11 mph 98% 0.01 in
02:52 39.2 °F 39.2 °F 29.7 in South 6 mph 11 mph 98% 0.01 in
02:57 39.2 °F 39.2 °F 29.7 in South 12.5 mph 12.5 mph 98% 0.01 in
03:02 39.2 °F 39.2 °F 29.7 in South 8.5 mph 12.5 mph 98% 0.01 in
03:07 39.2 °F 39.2 °F 29.7 in SSW 7.6 mph 14.8 mph 98% 0.01 in
03:12 39.4 °F 39.2 °F 29.7 in SSW 5.4 mph 14.8 mph 98% 0.01 in
03:17 39.4 °F 39.2 °F 29.6 in SSW 7.8 mph 8.1 mph 98% 0.01 in
03:22 39.4 °F 39.2 °F 29.6 in SSW 13.6 mph 13.6 mph 98% 0.01 in
03:27 39.4 °F 39.2 °F 29.6 in SSW 6 mph 13.6 mph 98% 0 in
03:32 39.4 °F 39.2 °F 29.7 in South 14.1 mph 15.4 mph 98% 0 in
03:37 39.6 °F 39.2 °F 29.7 in SSW 13 mph 15.4 mph 98% 0 in
03:42 39.6 °F 39.2 °F 29.7 in South 8.7 mph 14.5 mph 98% 0 in
03:47 39.6 °F 39.2 °F 29.7 in SSW 7.8 mph 14.3 mph 98% 0 in
03:52 39.6 °F 39.2 °F 29.7 in South 8.7 mph 14.3 mph 98% 0 in
03:57 39.6 °F 39.2 °F 29.7 in South 12.3 mph 12.3 mph 98% 0 in
04:02 39.7 °F 39.2 °F 29.7 in South 6.7 mph 12.3 mph 98% 0 in
04:07 39.7 °F 39.2 °F 29.7 in SSW 7.4 mph 12.3 mph 98% 0 in
04:12 39.7 °F 39.2 °F 29.7 in South 6.3 mph 7.8 mph 98% 0 in
04:17 39.7 °F 39.2 °F 29.7 in SSW 3.6 mph 8.7 mph 98% 0 in
04:22 39.9 °F 39.2 °F 29.7 in SSW 3.6 mph 8.7 mph 98% 0 in
04:27 39.9 °F 39.2 °F 29.7 in South 4.3 mph 10.3 mph 98% 0 in
04:32 39.9 °F 39.2 °F 29.7 in SSW 9.6 mph 12.3 mph 98% 0 in
04:37 39.9 °F 39.2 °F 29.7 in South 6.3 mph 12.3 mph 98% 0 in
04:43 39.9 °F 39.2 °F 29.7 in SSW 5.4 mph 9.6 mph 98% 0 in
04:48 39.9 °F 39.2 °F 29.7 in SSE 6.5 mph 8.7 mph 98% 0.01 in
04:53 39.9 °F 39.2 °F 29.7 in South 7.8 mph 8.7 mph 98% 0.01 in
04:58 39.9 °F 39.2 °F 29.7 in South 8.1 mph 8.1 mph 98% 0.01 in
05:03 39.9 °F 39.2 °F 29.7 in SE 6.3 mph 8.1 mph 98% 0.01 in
05:08 40.1 °F 41 °F 29.7 in SSE 4.9 mph 11 mph 98% 0.01 in
05:13 40.1 °F 41 °F 29.7 in South 8.9 mph 11 mph 98% 0.01 in
05:18 40.3 °F 41 °F 29.7 in SSW 5.6 mph 8.9 mph 98% 0.01 in
05:23 40.3 °F 41 °F 29.7 in South 7.6 mph 9.8 mph 98% 0.01 in
05:28 40.3 °F 41 °F 29.7 in SSW 6.7 mph 9.8 mph 98% 0.01 in
05:33 40.3 °F 41 °F 29.7 in SSW 3.8 mph 8.5 mph 98% 0.01 in
05:38 40.5 °F 41 °F 29.7 in SSW 5.8 mph 6.5 mph 98% 0.01 in
05:43 40.5 °F 41 °F 29.7 in SSW 4.9 mph 6.5 mph 98% 0.01 in
05:48 40.5 °F 41 °F 29.7 in SSW 5.8 mph 8.1 mph 98% 0 in
05:53 40.6 °F 41 °F 29.7 in South 6.9 mph 8.7 mph 98% 0 in
05:58 40.5 °F 41 °F 29.7 in South 7.4 mph 8.7 mph 98% 0 in
06:03 40.6 °F 41 °F 29.7 in South 4 mph 8.5 mph 98% 0 in
06:08 40.6 °F 41 °F 29.7 in South 7.6 mph 8.5 mph 98% 0 in
06:13 40.6 °F 41 °F 29.7 in South 5.6 mph 7.6 mph 98% 0 in
06:18 40.6 °F 41 °F 29.7 in SSW 1.1 mph 7.6 mph 98% 0 in
06:23 40.6 °F 41 °F 29.7 in Calm   6 mph 98% 0 in
06:28 40.8 °F 41 °F 29.7 in SSW 5.4 mph 6.5 mph 98% 0 in
06:33 40.8 °F 41 °F 29.7 in South 2.7 mph 7.2 mph 98% 0 in
06:38 41 °F 41 °F 29.7 in SSW 3.1 mph 7.6 mph 98% 0 in
06:43 41 °F 41 °F 29.7 in South 6 mph 7.6 mph 98% 0 in
06:48 41 °F 41 °F 29.6 in SSW 4.9 mph 8.1 mph 98% 0 in
06:53 41 °F 41 °F 29.6 in South 6 mph 8.1 mph 98% 0 in
06:58 41.2 °F 41 °F 29.6 in SSW 4.9 mph 9.2 mph 98% 0 in
07:03 41.2 °F 41 °F 29.7 in SSW 3.8 mph 9.2 mph 98% 0 in
07:09 41.2 °F 41 °F 29.7 in South 4.9 mph 7.2 mph 98% 0 in
07:14 41.2 °F 41 °F 29.7 in South 4.7 mph 7.2 mph 98% 0 in
07:19 41.4 °F 41 °F 29.7 in South 4 mph 6 mph 98% 0 in
07:24 41.4 °F 41 °F 29.7 in Calm   6 mph 98% 0 in
07:29 41.5 °F 42.8 °F 29.7 in Calm   5.8 mph 98% 0 in
07:34 41.5 °F 42.8 °F 29.7 in South 4.3 mph 5.4 mph 98% 0 in
07:39 41.5 °F 42.8 °F 29.7 in Calm   5.4 mph 98% 0 in
07:44 41.7 °F 42.8 °F 29.7 in SW 4.3 mph 5.4 mph 98% 0 in
07:49 41.9 °F 42.8 °F 29.7 in Calm   5.6 mph 98% 0 in
07:54 42.1 °F 42.8 °F 29.7 in Calm   5.6 mph 98% 0 in
07:59 42.1 °F 42.8 °F 29.7 in SW 4.7 mph 5.6 mph 98% 0 in
08:04 42.3 °F 42.8 °F 29.7 in SSW 7.6 mph 7.6 mph 98% 0 in
08:09 42.3 °F 42.8 °F 29.7 in SSW 7.6 mph 7.6 mph 98% 0 in
08:14 42.4 °F 42.8 °F 29.7 in SW 8.1 mph 8.1 mph 98% 0 in
08:19 42.4 °F 42.8 °F 29.7 in SSW 2.9 mph 8.1 mph 98% 0 in
08:24 42.4 °F 42.8 °F 29.7 in SSW 6.3 mph 8.1 mph 98% 0.01 in
08:29 42.6 °F 42.8 °F 29.8 in SW 3.4 mph 6.3 mph 98% 0.01 in
08:34 42.6 °F 42.8 °F 29.8 in Calm   6.3 mph 98% 0.01 in
08:39 42.8 °F 42.8 °F 29.8 in SSW 3.4 mph 5.4 mph 98% 0.01 in
08:44 43 °F 42.8 °F 29.7 in South 3.4 mph 4.9 mph 98% 0.01 in
08:49 43 °F 42.8 °F 29.7 in Calm   5.8 mph 98% 0.01 in
08:54 43.2 °F 42.8 °F 29.7 in SSW 6 mph 6 mph 98% 0.01 in
08:59 43.3 °F 42.8 °F 29.7 in SSW 4 mph 6.5 mph 98% 0.01 in
09:04 43.3 °F 42.8 °F 29.7 in SSW 2.5 mph 6.5 mph 98% 0.01 in
09:09 43.5 °F 42.8 °F 29.7 in SW 3.6 mph 5.6 mph 98% 0.01 in
09:14 43.5 °F 42.8 °F 29.7 in SSW 5.6 mph 5.6 mph 98% 0.01 in
09:19 43.7 °F 44.6 °F 29.7 in SSW 4.3 mph 6.3 mph 98% 0 in
09:24 43.9 °F 44.6 °F 29.7 in SSW 4.3 mph 6.3 mph 98% 0 in
09:29 44.1 °F 44.6 °F 29.7 in SW 3.4 mph 6.3 mph 98% 0 in
09:34 44.2 °F 44.6 °F 29.7 in Calm   6.3 mph 98% 0 in
09:40 44.4 °F 44.6 °F 29.7 in Calm   6.9 mph 98% 0 in
09:45 44.6 °F 44.6 °F 29.8 in Calm   6.9 mph 98% 0 in
09:50 44.8 °F 44.6 °F 29.8 in SSW 3.4 mph 5.4 mph 98% 0 in
09:55 45.1 °F 44.6 °F 29.8 in South 2.2 mph 6.3 mph 98% 0 in
10:00 45.1 °F 44.6 °F 29.8 in SW 1.3 mph 6.3 mph 98% 0 in
10:05 45.1 °F 44.6 °F 29.8 in SSW 5.6 mph 6 mph 98% 0 in
10:10 45.5 °F 46.4 °F 29.8 in WSW 5.6 mph 5.6 mph 98% 0 in
10:15 45.7 °F 46.4 °F 29.8 in SSW 5.8 mph 8.7 mph 98% 0 in
10:20 46 °F 46.4 °F 29.8 in Calm   8.7 mph 98% 0 in
10:25 46.2 °F 46.4 °F 29.8 in SW 5.4 mph 8.1 mph 98% 0 in
10:30 46.4 °F 46.4 °F 29.8 in SW 6.3 mph 7.6 mph 98% 0 in
10:35 46.8 °F 46.4 °F 29.8 in WSW 6 mph 8.1 mph 98% 0 in
10:40 47.1 °F 48.2 °F 29.8 in WSW 5.4 mph 8.1 mph 98% 0 in
10:45 47.1 °F 48.2 °F 29.8 in WSW 5.4 mph 8.1 mph 98% 0 in
10:47 47.1 °F 48.2 °F 29.8 in SW 1.6 mph 8.1 mph 98% 0 in
10:52 47.3 °F 48.2 °F 29.8 in SSW 5.8 mph 8.1 mph 98% 0 in
10:57 47.7 °F 48.2 °F 29.8 in WSW 5.4 mph 8.5 mph 98% 0 in
11:02 48 °F 48.2 °F 29.8 in WSW 5.6 mph 10.5 mph 98% 0 in
11:07 48.4 °F 48.2 °F 29.8 in SW 7.8 mph 10.5 mph 98% 0 in
11:12 48.7 °F 48.2 °F 29.8 in SW 8.5 mph 10.1 mph 98% 0 in
11:17 49.1 °F 50 °F 29.8 in WSW 7.4 mph 10.1 mph 98% 0 in
11:22 50.2 °F 50 °F 29.8 in SW 6 mph 10.1 mph 98% 0 in
11:27 50.9 °F 51.8 °F 29.8 in SSW 5.8 mph 8.7 mph 98% 0 in
11:32 51.1 °F 51.8 °F 29.8 in WSW 8.5 mph 11 mph 98% 0 in
11:37 51.3 °F 51.8 °F 29.8 in WSW 10.1 mph 11 mph 98% 0 in
11:42 51.6 °F 51.8 °F 29.8 in WSW 7.6 mph 13.2 mph 98% 0 in
11:47 51.8 °F 51.8 °F 29.8 in WSW 6.3 mph 13.2 mph 98% 0 in
11:52 52 °F 51.8 °F 29.8 in WSW 7.4 mph 13 mph 98% 0 in
11:57 52.2 °F 51.8 °F 29.8 in WSW 9.6 mph 11 mph 98% 0 in
12:02 52.3 °F 51.8 °F 29.8 in WSW 10.5 mph 13.2 mph 98% 0 in
12:07 52.5 °F 51.8 °F 29.8 in SW 11 mph 13.2 mph 98% 0 in
12:12 53.1 °F 53.6 °F 29.8 in WSW 8.7 mph 12.8 mph 98% 0 in
12:18 53.2 °F 51.8 °F 29.8 in West 8.1 mph 12.5 mph 97% 0 in
12:23 53.4 °F 51.8 °F 29.8 in WSW 14.1 mph 14.1 mph 95% 0 in
12:28 53.8 °F 51.8 °F 29.8 in WSW 10.7 mph 15.4 mph 94% 0 in
12:33 54 °F 51.8 °F 29.8 in West 11.9 mph 15.4 mph 93% 0 in
12:38 53.8 °F 51.8 °F 29.8 in WSW 10.3 mph 15.4 mph 91% 0 in
12:43 53.6 °F 51.8 °F 29.8 in WSW 11.2 mph 15.4 mph 89% 0 in
12:48 53.4 °F 50 °F 29.8 in West 10.1 mph 16.6 mph 87% 0 in
12:53 53.6 °F 50 °F 29.8 in West 11 mph 17 mph 86% 0 in
12:58 53.6 °F 50 °F 29.8 in West 10.5 mph 17 mph 85% 0 in
13:03 53.8 °F 50 °F 29.8 in WSW 12.8 mph 15.2 mph 85% 0 in
13:08 53.8 °F 48.2 °F 29.8 in WSW 15.4 mph 17.2 mph 83% 0 in
13:13 53.8 °F 48.2 °F 29.8 in WSW 8.1 mph 17.2 mph 81% 0 in
13:18 53.8 °F 48.2 °F 29.8 in WSW 12.8 mph 16.8 mph 83% 0 in
13:23 54 °F 48.2 °F 29.8 in West 12.3 mph 17.4 mph 80% 0 in
13:28 54 °F 48.2 °F 29.8 in WSW 8.7 mph 17.4 mph 79% 0 in
13:33 53.8 °F 48.2 °F 29.8 in WSW 9.4 mph 15.4 mph 78% 0 in
13:38 54.1 °F 48.2 °F 29.8 in West 8.5 mph 13.9 mph 79% 0 in
13:43 54.3 °F 48.2 °F 29.8 in West 10.3 mph 13 mph 78% 0 in
13:48 54.5 °F 48.2 °F 29.9 in West 12.3 mph 14.8 mph 78% 0 in
13:53 54.5 °F 48.2 °F 29.9 in WSW 8.5 mph 14.8 mph 76% 0 in
13:58 54.5 °F 48.2 °F 29.9 in WSW 10.3 mph 15.9 mph 77% 0 in
14:03 54.5 °F 48.2 °F 29.9 in WSW 8.5 mph 15.9 mph 76% 0 in
14:08 54.5 °F 48.2 °F 29.9 in West 15.4 mph 15.9 mph 74% 0 in
14:13 54.3 °F 48.2 °F 29.9 in WSW 9.6 mph 15.9 mph 75% 0 in
14:18 54.5 °F 48.2 °F 29.9 in WSW 14.8 mph 15.4 mph 77% 0 in
14:24 54.7 °F 48.2 °F 29.9 in West 8.7 mph 14.8 mph 76% 0 in
14:29 54.7 °F 48.2 °F 29.9 in WSW 10.5 mph 13.2 mph 75% 0 in
14:34 54.9 °F 48.2 °F 29.9 in WSW 6.3 mph 13.2 mph 75% 0 in
14:39 55 °F 48.2 °F 29.9 in WSW 7.8 mph 15.4 mph 74% 0 in
14:44 54.9 °F 46.4 °F 29.9 in West 12.1 mph 16.6 mph 73% 0 in
14:49 54.9 °F 46.4 °F 29.9 in West 10.3 mph 17.4 mph 70% 0 in
14:54 55 °F 46.4 °F 29.9 in West 13.2 mph 17.4 mph 70% 0 in
14:59 54.9 °F 44.6 °F 29.9 in WSW 12.3 mph 20.6 mph 68% 0 in
15:04 55 °F 46.4 °F 29.9 in WNW 10.7 mph 20.6 mph 70% 0 in
15:09 55 °F 46.4 °F 29.9 in WSW 12.3 mph 14.8 mph 69% 0 in
15:14 55 °F 44.6 °F 29.9 in West 9.8 mph 17 mph 67% 0 in
15:19 55.2 °F 44.6 °F 29.9 in WSW 10.3 mph 17 mph 64% 0 in
15:24 55.6 °F 44.6 °F 29.9 in WSW 15.7 mph 20.1 mph 65% 0 in
15:29 55.4 °F 42.8 °F 29.9 in West 11.4 mph 20.1 mph 63% 0 in
15:34 55 °F 44.6 °F 29.9 in WSW 12.5 mph 19.2 mph 64% 0 in
15:39 54.5 °F 42.8 °F 29.9 in West 14.8 mph 18.1 mph 64% 0 in
15:44 54 °F 42.8 °F 29.9 in West 12.5 mph 18.1 mph 64% 0 in
15:49 53.2 °F 42.8 °F 29.9 in WSW 11.2 mph 18.6 mph 65% 0 in
15:54 53.1 °F 42.8 °F 29.9 in West 10.5 mph 18.6 mph 67% 0 in
15:59 53.2 °F 42.8 °F 29.9 in West 6.3 mph 15.2 mph 68% 0 in
16:04 53.1 °F 42.8 °F 29.9 in West 5.6 mph 13.2 mph 68% 0 in
16:09 53.6 °F 44.6 °F 29.9 in WSW 5.8 mph 12.5 mph 68% 0 in
16:14 53.8 °F 42.8 °F 29.9 in WNW 5.6 mph 12.5 mph 67% 0 in
16:19 53.6 °F 42.8 °F 29.9 in WNW 4 mph 8.7 mph 67% 0 in
16:24 52.9 °F 42.8 °F 29.9 in West 6 mph 10.7 mph 66% 0 in
16:29 52.2 °F 42.8 °F 29.9 in West 9.8 mph 10.7 mph 67% 0 in
16:34 51.8 °F 42.8 °F 29.9 in West 6.5 mph 10.5 mph 68% 0 in
16:39 51.4 °F 41 °F 29.9 in WNW 2.7 mph 10.5 mph 69% 0 in
16:44 50.9 °F 42.8 °F 29.9 in West 10.7 mph 10.7 mph 70% 0 in
16:49 50.5 °F 42.8 °F 29.9 in West 6.3 mph 10.7 mph 71% 0 in
16:54 50.2 °F 41 °F 29.9 in WSW 6 mph 10.5 mph 71% 0 in
17:00 50 °F 42.8 °F 29.9 in WSW 6 mph 10.5 mph 72% 0 in
17:05 49.8 °F 42.8 °F 29.9 in West 6 mph 9.8 mph 72% 0 in
17:10 49.5 °F 41 °F 29.9 in West 6.5 mph 11 mph 72% 0 in
17:15 49.5 °F 41 °F 29.9 in West 5.8 mph 11 mph 72% 0 in
17:20 49.5 °F 41 °F 29.9 in WSW 5.8 mph 10.7 mph 71% 0 in
17:25 49.5 °F 41 °F 29.9 in West 8.1 mph 10.5 mph 70% 0 in
17:30 49.3 °F 39.2 °F 29.9 in West 2.9 mph 8.9 mph 69% 0 in
17:31 49.3 °F 39.2 °F 29.9 in West 6.3 mph 8.9 mph 69% 0 in
17:36 49.1 °F 39.2 °F 29.9 in WSW 4 mph 8.5 mph 69% 0 in
17:41 48.7 °F 39.2 °F 29.9 in West 4.9 mph 8.1 mph 69% 0 in
17:47 48.4 °F 39.2 °F 29.9 in West 5.4 mph 6.5 mph 69% 0 in
17:52 48 °F 39.2 °F 29.9 in West 1.3 mph 6.3 mph 69% 0 in
17:57 47.3 °F 39.2 °F 29.9 in Calm   5.4 mph 70% 0 in
18:02 46.8 °F 37.4 °F 29.9 in Calm   4 mph 71% 0 in
18:07 46.6 °F 39.2 °F 29.9 in WSW 2.2 mph 4.7 mph 72% 0 in
18:12 46.2 °F 37.4 °F 29.9 in West 3.8 mph 4.9 mph 72% 0 in
18:17 45.9 °F 37.4 °F 30 in Calm   4.9 mph 73% 0 in
18:22 45.5 °F 37.4 °F 30 in West 3.8 mph 5.4 mph 74% 0 in
18:27 45.3 °F 37.4 °F 30 in West 0.9 mph 5.8 mph 75% 0 in
18:32 45 °F 37.4 °F 30 in West 3.4 mph 6 mph 75% 0 in
18:37 44.6 °F 37.4 °F 30 in West 2.2 mph 6 mph 76% 0 in
18:42 44.2 °F 37.4 °F 30 in Calm   4.9 mph 77% 0 in
18:47 44.1 °F 37.4 °F 30 in Calm   4.7 mph 77% 0 in
18:52 43.7 °F 37.4 °F 30 in Calm   4.3 mph 77% 0 in
18:57 43.5 °F 37.4 °F 30 in Calm   4.3 mph 78% 0 in
19:02 43.2 °F 37.4 °F 29.9 in Calm   4 mph 79% 0 in
19:07 42.8 °F 37.4 °F 29.9 in Calm   4 mph 79% 0 in
19:12 42.8 °F 37.4 °F 29.9 in Calm   3.1 mph 80% 0 in
19:17 42.6 °F 37.4 °F 30 in West 2.5 mph 5.4 mph 81% 0 in
19:23 42.4 °F 37.4 °F 30 in WSW 2.2 mph 5.4 mph 81% 0 in
19:28 42.3 °F 37.4 °F 30 in WSW 3.4 mph 4.5 mph 82% 0 in
19:33 42.3 °F 37.4 °F 30 in WSW 2.7 mph 4.5 mph 82% 0 in
19:38 42.1 °F 37.4 °F 30 in West 2.5 mph 4.3 mph 83% 0 in
19:43 41.9 °F 37.4 °F 30 in Calm   4.3 mph 83% 0 in
19:48 41.5 °F 37.4 °F 30 in Calm   2.7 mph 83% 0 in
19:53 41.2 °F 37.4 °F 30 in Calm   2.7 mph 83% 0 in
19:58 41 °F 37.4 °F 30 in Calm   0.9 mph 83% 0 in
20:03 40.8 °F 37.4 °F 30 in West 1.1 mph 2.5 mph 84% 0 in
20:08 40.8 °F 37.4 °F 30 in Calm   2.7 mph 85% 0 in
20:13 40.8 °F 37.4 °F 30 in West 2.2 mph 3.8 mph 86% 0 in
20:18 40.6 °F 37.4 °F 30 in Calm   3.8 mph 86% 0 in
20:23 40.3 °F 37.4 °F 30 in Calm   2.2 mph 85% 0 in
20:28 39.7 °F 35.6 °F 30 in Calm     85% 0 in
20:33 39.4 °F 35.6 °F 30 in Calm     85% 0 in
20:38 39 °F 35.6 °F 30 in Calm     85% 0 in
20:43 38.7 °F 35.6 °F 30 in Calm     86% 0 in
20:48 38.5 °F 35.6 °F 30 in Calm     86% 0 in
20:53 38.3 °F 35.6 °F 30 in Calm     87% 0 in
20:59 38.3 °F 35.6 °F 30 in Calm     87% 0 in
21:04 38.3 °F 35.6 °F 30 in Calm     88% 0 in
21:06 38.3 °F 35.6 °F 30 in Calm     88% 0 in
21:11 38.5 °F 35.6 °F 30 in Calm     89% 0 in
21:16 38.5 °F 35.6 °F 30 in Calm     89% 0 in
21:21 38.3 °F 35.6 °F 30 in Calm     90% 0 in
21:26 37.9 °F 35.6 °F 30 in Calm     90% 0 in
21:31 37.8 °F 35.6 °F 30 in Calm     89% 0 in
21:36 37.9 °F 35.6 °F 30 in Calm   3.6 mph 91% 0 in
21:41 38.1 °F 35.6 °F 30 in Calm   3.6 mph 91% 0 in
21:46 38.3 °F 37.4 °F 30 in Calm   4.5 mph 92% 0 in
21:51 38.5 °F 37.4 °F 30 in West 0.9 mph 4.5 mph 92% 0 in
21:56 38.5 °F 37.4 °F 30 in West 2.5 mph 4.3 mph 93% 0 in
22:01 38.7 °F 37.4 °F 30 in Calm   5.4 mph 93% 0 in
22:06 38.5 °F 37.4 °F 30 in Calm   5.4 mph 93% 0 in
22:11 38.5 °F 37.4 °F 30 in Calm   4.3 mph 93% 0 in
22:17 38.3 °F 37.4 °F 30 in West 3.6 mph 5.4 mph 93% 0 in
22:22 38.3 °F 37.4 °F 30 in West 4.9 mph 5.4 mph 93% 0 in
22:27 38.1 °F 37.4 °F 30 in West 3.6 mph 4.9 mph 94% 0 in
22:32 38.1 °F 37.4 °F 30.1 in Calm   4.9 mph 94% 0 in
22:37 37.9 °F 37.4 °F 30.1 in Calm   3.6 mph 94% 0 in
22:42 37.8 °F 37.4 °F 30.1 in Calm     94% 0 in
22:47 37.8 °F 37.4 °F 30.1 in Calm   3.8 mph 94% 0 in
22:52 37.9 °F 37.4 °F 30.1 in Calm   3.8 mph 94% 0 in
22:57 37.8 °F 37.4 °F 30.1 in Calm     95% 0 in
23:02 37 °F 35.6 °F 30.1 in Calm     94% 0 in
23:07 36.9 °F 35.6 °F 30.1 in Calm   4.7 mph 94% 0 in
23:12 37 °F 37.4 °F 30.1 in Calm   4.7 mph 95% 0 in
23:17 37.2 °F 37.4 °F 30.1 in Calm   4 mph 95% 0 in
23:22 37 °F 37.4 °F 30.1 in Calm     96% 0 in
23:27 36.9 °F 35.6 °F 30.1 in Calm     95% 0 in
23:32 37.2 °F 37.4 °F 30.1 in WSW 3.8 mph 3.8 mph 96% 0 in
23:37 37.2 °F 37.4 °F 30.1 in Calm   4.3 mph 96% 0 in
23:42 37.2 °F 37.4 °F 30.1 in Calm   4.3 mph 96% 0 in
23:47 37.4 °F 37.4 °F 30.1 in Calm     96% 0 in
23:52 37.4 °F 37.4 °F 30.1 in Calm     96% 0 in
23:57 37 °F 37.4 °F 30.1 in West 2.2 mph 2.2 mph 96% 0 in
Données Historique de Météo Turbie

Mise a jour : 18/06/2018 07:51:12
Généré par Cumulus 1.9.4 (1099)